Location: Kelshall
(52.0000°N, 0.0500°W)
Time: 12:02:11
(UTC+00:00)

Okean 1 Rocket - Pass Details

Date: 17 January 2021
Orbit: 605 x 635 km, 82.5° (Epoch: 05 March)

Event Time Altitude Azimuth Distance (km) Brightness Sun altitude
Exits shadow 03:38:18 13° 67° (ENE) 1,851 6.1 -39.3°
Drops below altitude 10° 03:39:29 10° 52° (NE) 2,030 6.3 -39.1°
Sets 03:42:46 0° 26° (NNE) 2,941 7.0 -38.6°
